Time,TemperatureF,DewpointF,PressureIn,WindDirection,WindDirectionDegrees,WindSpeedMPH,WindSpeedGustMPH,Humidity,HourlyPrecipIn,Conditions,Clouds,dailyrainin,SoftwareType,DateUTC
2013-04-10 00:03:00,39.0,37.0,29.96,North,5,0.0,9.0,94,0.00,,,1.12,,2013-04-10 04:03:00,
2013-04-10 00:13:00,39.0,37.0,29.96,North,5,0.0,9.0,94,0.00,,,1.12,,2013-04-10 04:13:00,
2013-04-10 00:23:00,39.0,38.0,29.97,ENE,75,0.0,5.0,95,0.00,,,1.12,,2013-04-10 04:23:00,
2013-04-10 00:33:00,39.0,38.0,29.97,ENE,75,0.0,5.0,95,0.00,,,1.12,,2013-04-10 04:33:00,
2013-04-10 00:43:00,39.0,38.0,29.97,ENE,75,0.0,5.0,95,0.00,,,1.12,,2013-04-10 04:43:00,
2013-04-10 00:53:00,39.0,37.0,29.97,ENE,74,3.0,5.0,94,0.00,,,1.12,,2013-04-10 04:53:00,
2013-04-10 01:02:00,39.0,37.0,29.97,NNE,33,0.0,1.0,94,0.00,,,1.12,,2013-04-10 05:02:00,
2013-04-10 01:13:00,39.0,37.0,29.97,NNE,33,0.0,1.0,94,0.00,,,1.12,,2013-04-10 05:13:00,
2013-04-10 01:23:00,39.0,37.0,29.97,NE,48,2.0,4.0,94,0.00,,,1.12,,2013-04-10 05:23:00,
2013-04-10 01:33:00,39.0,37.0,29.99,NE,38,0.0,3.0,94,0.00,,,1.12,,2013-04-10 05:33:00,
2013-04-10 01:42:00,39.0,37.0,29.99,NE,38,0.0,3.0,94,0.00,,,1.12,,2013-04-10 05:42:00,
2013-04-10 01:53:00,39.0,38.0,29.99,NE,46,0.0,4.0,95,0.00,,,1.12,,2013-04-10 05:53:00,
2013-04-10 02:03:00,39.0,37.0,29.98,ENE,69,2.0,6.0,94,0.00,,,1.12,,2013-04-10 06:03:00,
2013-04-10 02:12:00,39.0,37.0,29.98,NE,36,3.0,5.0,94,0.00,,,1.12,,2013-04-10 06:12:00,
2013-04-10 02:22:00,39.0,37.0,29.98,NE,36,3.0,5.0,94,0.00,,,1.12,,2013-04-10 06:22:00,
2013-04-10 02:32:00,39.0,37.0,29.97,NNE,21,0.0,7.0,94,0.00,,,1.12,,2013-04-10 06:32:00,
2013-04-10 02:42:00,39.0,37.0,29.97,NNE,21,0.0,7.0,94,0.00,,,1.12,,2013-04-10 06:42:00,
2013-04-10 02:52:00,39.0,37.0,29.96,ENE,57,0.0,4.0,94,0.00,,,1.12,,2013-04-10 06:52:00,
2013-04-10 03:02:00,39.0,37.0,29.94,NNE,33,3.0,4.0,94,0.00,,,1.12,,2013-04-10 07:02:00,
2013-04-10 03:12:00,39.0,37.0,29.94,NNE,33,3.0,4.0,94,0.00,,,1.12,,2013-04-10 07:12:00,
2013-04-10 03:22:00,38.0,36.0,29.95,NE,42,3.0,5.0,94,0.00,,,1.12,,2013-04-10 07:22:00,
2013-04-10 03:32:00,39.0,37.0,29.95,NNE,25,0.0,10.0,94,0.00,,,1.12,,2013-04-10 07:32:00,
2013-04-10 03:42:00,39.0,37.0,29.95,NNE,25,0.0,10.0,94,0.00,,,1.12,,2013-04-10 07:42:00,
2013-04-10 03:52:00,38.0,36.0,29.94,NE,53,0.0,5.0,94,0.00,,,1.12,,2013-04-10 07:52:00,
2013-04-10 04:02:00,38.0,36.0,29.94,NNE,30,6.0,6.0,94,0.00,,,1.12,,2013-04-10 08:02:00,
2013-04-10 04:12:00,38.0,36.0,29.94,NNE,30,6.0,6.0,94,0.00,,,1.12,,2013-04-10 08:12:00,
2013-04-10 04:22:00,38.0,36.0,29.93,ENE,67,0.0,4.0,93,0.01,,,1.13,,2013-04-10 08:22:00,
2013-04-10 04:32:00,38.0,36.0,29.91,East,93,2.0,6.0,93,0.01,,,1.13,,2013-04-10 08:32:00,
2013-04-10 04:42:00,38.0,36.0,29.91,East,93,2.0,6.0,93,0.01,,,1.13,,2013-04-10 08:42:00,
2013-04-10 04:52:00,38.0,36.0,29.91,East,80,0.0,6.0,93,0.01,,,1.13,,2013-04-10 08:52:00,
2013-04-10 05:02:00,38.0,36.0,29.93,NNE,26,4.0,7.0,94,0.01,,,1.13,,2013-04-10 09:02:00,
2013-04-10 05:12:00,38.0,36.0,29.97,North,355,0.0,5.0,94,0.04,,,1.17,,2013-04-10 09:12:00,
2013-04-10 05:22:00,38.0,36.0,29.97,North,355,0.0,5.0,94,0.04,,,1.17,,2013-04-10 09:22:00,
2013-04-10 05:32:00,38.0,36.0,29.96,NNE,16,2.0,6.0,94,0.13,,,1.26,,2013-04-10 09:32:00,
2013-04-10 05:43:00,38.0,36.0,29.96,NNE,16,2.0,6.0,94,0.13,,,1.26,,2013-04-10 09:43:00,
2013-04-10 05:52:00,38.0,36.0,29.96,NNE,19,3.0,6.0,94,0.13,,,1.26,,2013-04-10 09:52:00,
2013-04-10 06:03:00,38.0,36.0,29.96,NNE,24,4.0,7.0,94,0.13,,,1.26,,2013-04-10 10:03:00,
2013-04-10 06:13:00,38.0,36.0,29.97,North,0,2.0,10.0,94,0.05,,,1.27,,2013-04-10 10:13:00,
2013-04-10 06:23:00,38.0,36.0,29.97,North,0,2.0,10.0,94,0.05,,,1.27,,2013-04-10 10:23:00,
2013-04-10 06:33:00,38.0,36.0,29.95,North,10,2.0,7.0,94,0.01,,,1.27,,2013-04-10 10:33:00,
2013-04-10 06:43:00,38.0,36.0,29.95,North,10,2.0,7.0,94,0.01,,,1.27,,2013-04-10 10:43:00,
2013-04-10 06:53:00,38.0,36.0,29.96,NE,45,3.0,7.0,94,0.01,,,1.27,,2013-04-10 10:53:00,
2013-04-10 07:02:00,38.0,36.0,29.93,NNE,29,4.0,11.0,94,0.04,,,1.30,,2013-04-10 11:02:00,
2013-04-10 07:12:00,38.0,36.0,29.93,NNE,29,4.0,11.0,94,0.04,,,1.30,,2013-04-10 11:12:00,
2013-04-10 07:22:00,38.0,36.0,29.93,East,82,0.0,10.0,94,0.06,,,1.32,,2013-04-10 11:22:00,
2013-04-10 07:32:00,38.0,36.0,29.99,NNE,22,6.0,7.0,94,0.05,,,1.33,,2013-04-10 11:32:00,
2013-04-10 07:42:00,38.0,36.0,29.99,NNE,22,6.0,7.0,94,0.05,,,1.33,,2013-04-10 11:42:00,
2013-04-10 07:52:00,38.0,36.0,29.99,NNE,27,3.0,9.0,94,0.09,,,1.36,,2013-04-10 11:52:00,
2013-04-10 08:03:00,38.0,36.0,29.95,ESE,109,2.0,12.0,94,0.13,,,1.42,,2013-04-10 12:03:00,
2013-04-10 08:12:00,38.0,36.0,29.95,ESE,109,2.0,12.0,94,0.13,,,1.42,,2013-04-10 12:12:00,
2013-04-10 08:23:00,38.0,36.0,29.93,NNE,32,9.0,11.0,94,0.17,,,1.49,,2013-04-10 12:23:00,
2013-04-10 08:33:00,38.0,37.0,29.94,ENE,75,3.0,9.0,95,0.17,,,1.50,,2013-04-10 12:33:00,
2013-04-10 08:42:00,38.0,37.0,29.94,ENE,75,3.0,9.0,95,0.17,,,1.50,,2013-04-10 12:42:00,
2013-04-10 08:52:00,38.0,37.0,29.93,NE,40,3.0,14.0,95,0.14,,,1.51,,2013-04-10 12:52:00,
2013-04-10 09:02:00,38.0,37.0,29.92,NE,35,5.0,8.0,95,0.11,,,1.52,,2013-04-10 13:02:00,
2013-04-10 09:12:00,38.0,37.0,29.92,NE,35,5.0,8.0,95,0.11,,,1.52,,2013-04-10 13:12:00,
2013-04-10 09:23:00,38.0,37.0,29.91,ENE,67,2.0,10.0,95,0.06,,,1.56,,2013-04-10 13:23:00,
2013-04-10 09:32:00,38.0,37.0,29.92,NNE,30,1.0,11.0,95,0.05,,,1.56,,2013-04-10 13:32:00,
2013-04-10 09:43:00,38.0,37.0,29.92,NNE,30,1.0,11.0,95,0.05,,,1.56,,2013-04-10 13:43:00,
2013-04-10 09:53:00,38.0,37.0,29.92,NNE,30,1.0,11.0,95,0.05,,,1.56,,2013-04-10 13:53:00,
2013-04-10 10:02:00,38.0,37.0,29.91,NNE,13,4.0,11.0,95,0.04,,,1.57,,2013-04-10 14:02:00,
2013-04-10 10:12:00,38.0,37.0,29.91,NNE,13,4.0,11.0,95,0.04,,,1.57,,2013-04-10 14:12:00,
2013-04-10 10:22:00,38.0,37.0,30.01,SSE,159,0.0,7.0,95,0.04,,,1.60,,2013-04-10 14:22:00,
2013-04-10 10:33:00,38.0,37.0,29.93,NNE,32,0.0,5.0,95,0.09,,,1.66,,2013-04-10 14:33:00,
2013-04-10 10:42:00,38.0,37.0,29.93,NNE,26,2.0,10.0,95,0.09,,,1.66,,2013-04-10 14:42:00,
2013-04-10 10:52:00,38.0,37.0,29.93,NNE,26,2.0,10.0,95,0.09,,,1.66,,2013-04-10 14:52:00,
2013-04-10 11:03:00,38.0,37.0,29.91,North,355,7.0,11.0,95,0.09,,,1.66,,2013-04-10 15:03:00,
2013-04-10 11:12:00,38.0,37.0,29.91,North,355,7.0,11.0,95,0.09,,,1.66,,2013-04-10 15:12:00,
2013-04-10 11:23:00,38.0,37.0,29.94,North,10,3.0,14.0,95,0.07,,,1.68,,2013-04-10 15:23:00,
2013-04-10 11:33:00,38.0,37.0,29.93,NNE,15,3.0,13.0,95,0.04,,,1.68,,2013-04-10 15:33:00,
2013-04-10 11:42:00,38.0,37.0,29.93,NNE,15,3.0,13.0,95,0.04,,,1.68,,2013-04-10 15:42:00,
2013-04-10 11:53:00,38.0,37.0,29.93,NNE,15,3.0,13.0,95,0.04,,,1.68,,2013-04-10 15:53:00,
2013-04-10 12:03:00,38.0,37.0,29.98,NNE,26,1.0,10.0,95,0.06,,,1.72,,2013-04-10 16:03:00,
2013-04-10 12:13:00,38.0,37.0,29.98,NNE,26,1.0,10.0,95,0.06,,,1.72,,2013-04-10 16:13:00,
2013-04-10 12:23:00,37.0,36.0,29.91,East,85,1.0,11.0,95,0.07,,,1.73,,2013-04-10 16:23:00,
2013-04-10 12:33:00,37.0,35.0,29.88,NNE,22,5.0,10.0,94,0.09,,,1.74,,2013-04-10 16:33:00,
2013-04-10 12:43:00,37.0,35.0,29.88,NNE,22,5.0,10.0,94,0.09,,,1.74,,2013-04-10 16:43:00,
2013-04-10 12:53:00,37.0,36.0,29.86,NE,45,0.0,9.0,95,0.09,,,1.73,,2013-04-10 16:53:00,
2013-04-10 13:03:00,37.0,36.0,29.86,NE,45,0.0,9.0,95,0.09,,,1.73,,2013-04-10 17:03:00,
2013-04-10 13:12:00,37.0,36.0,29.90,NE,42,0.0,7.0,95,0.03,,,1.66,,2013-04-10 17:12:00,
2013-04-10 13:22:00,37.0,36.0,29.90,NE,42,0.0,7.0,95,0.03,,,1.66,,2013-04-10 17:22:00,
2013-04-10 13:33:00,37.0,36.0,29.94,ENE,59,1.0,9.0,95,0.01,,,1.60,,2013-04-10 17:33:00,
2013-04-10 13:43:00,37.0,36.0,29.94,ENE,59,1.0,9.0,95,0.01,,,1.60,,2013-04-10 17:43:00,
2013-04-10 13:52:00,38.0,37.0,29.93,NNW,345,2.0,10.0,95,0.01,,,1.56,,2013-04-10 17:52:00,
2013-04-10 14:03:00,38.0,37.0,29.94,NE,45,7.0,11.0,95,0.01,,,1.55,,2013-04-10 18:03:00,
2013-04-10 14:12:00,38.0,37.0,29.94,NE,45,7.0,11.0,95,0.01,,,1.55,,2013-04-10 18:12:00,
2013-04-10 14:23:00,37.0,36.0,29.94,North,9,1.0,15.0,95,0.01,,,1.54,,2013-04-10 18:23:00,
2013-04-10 14:33:00,38.0,37.0,29.94,North,350,3.0,10.0,95,0.00,,,1.50,,2013-04-10 18:33:00,
2013-04-10 14:42:00,38.0,37.0,29.94,North,350,3.0,10.0,95,0.00,,,1.50,,2013-04-10 18:42:00,
2013-04-10 14:52:00,38.0,37.0,29.94,North,350,3.0,10.0,95,0.00,,,1.50,,2013-04-10 18:52:00,
2013-04-10 15:03:00,38.0,37.0,29.97,North,0,1.0,9.0,95,0.00,,,1.33,,2013-04-10 19:03:00,
2013-04-10 15:13:00,38.0,37.0,29.97,North,0,1.0,9.0,95,0.00,,,1.33,,2013-04-10 19:13:00,
2013-04-10 15:22:00,38.0,37.0,29.96,NNW,346,4.0,5.0,95,0.00,,,1.28,,2013-04-10 19:22:00,
2013-04-10 15:33:00,39.0,38.0,29.94,NNE,15,0.0,6.0,95,0.00,,,1.23,,2013-04-10 19:33:00,
2013-04-10 15:42:00,39.0,38.0,29.94,NNE,15,0.0,6.0,95,0.00,,,1.23,,2013-04-10 19:42:00,
2013-04-10 15:52:00,39.0,38.0,29.94,North,9,0.0,6.0,95,0.00,,,1.20,,2013-04-10 19:52:00,
2013-04-10 16:03:00,39.0,37.0,29.93,NE,34,10.0,13.0,94,0.00,,,1.08,,2013-04-10 20:03:00,
2013-04-10 16:12:00,39.0,37.0,29.93,North,5,2.0,13.0,93,0.00,,,1.05,,2013-04-10 20:12:00,
2013-04-10 16:23:00,39.0,37.0,29.93,North,5,2.0,13.0,93,0.00,,,1.05,,2013-04-10 20:23:00,
2013-04-10 16:33:00,39.0,37.0,29.93,NNE,18,0.0,11.0,92,0.00,,,0.96,,2013-04-10 20:33:00,
2013-04-10 16:42:00,39.0,37.0,29.93,NNE,19,4.0,11.0,92,0.00,,,0.85,,2013-04-10 20:42:00,
2013-04-10 16:52:00,39.0,37.0,29.93,NNE,19,4.0,11.0,92,0.00,,,0.85,,2013-04-10 20:52:00,
2013-04-10 17:03:00,40.0,38.0,29.93,NE,37,7.0,12.0,92,0.00,,,0.79,,2013-04-10 21:03:00,
2013-04-10 17:13:00,40.0,38.0,29.93,NE,37,7.0,12.0,92,0.00,,,0.79,,2013-04-10 21:13:00,
2013-04-10 17:22:00,40.0,38.0,29.94,NE,34,2.0,7.0,91,0.00,,,0.77,,2013-04-10 21:22:00,
2013-04-10 17:33:00,40.0,37.0,29.96,NNE,28,0.0,7.0,90,0.00,,,0.77,,2013-04-10 21:33:00,
2013-04-10 17:43:00,40.0,37.0,29.96,NNE,28,0.0,7.0,90,0.00,,,0.77,,2013-04-10 21:43:00,
2013-04-10 17:53:00,39.0,36.0,29.96,ENE,76,0.0,5.0,90,0.00,,,0.77,,2013-04-10 21:53:00,
2013-04-10 18:03:00,39.0,36.0,29.98,NNE,15,3.0,6.0,90,0.00,,,0.72,,2013-04-10 22:03:00,
2013-04-10 18:13:00,39.0,36.0,30.00,ENE,67,2.0,10.0,89,0.00,,,0.67,,2013-04-10 22:13:00,
2013-04-10 18:23:00,39.0,36.0,30.00,ENE,67,2.0,10.0,89,0.00,,,0.67,,2013-04-10 22:23:00,
2013-04-10 18:33:00,38.0,35.0,29.99,NE,49,0.0,7.0,89,0.00,,,0.66,,2013-04-10 22:33:00,
2013-04-10 18:42:00,38.0,35.0,29.99,NE,49,0.0,7.0,89,0.00,,,0.66,,2013-04-10 22:42:00,
2013-04-10 18:53:00,38.0,35.0,29.98,NNE,28,3.0,11.0,88,0.00,,,0.66,,2013-04-10 22:53:00,
2013-04-10 19:03:00,38.0,35.0,29.97,North,0,2.0,13.0,88,0.00,,,0.66,,2013-04-10 23:03:00,
2013-04-10 19:12:00,38.0,35.0,29.97,North,0,2.0,13.0,88,0.00,,,0.66,,2013-04-10 23:12:00,
2013-04-10 19:22:00,38.0,35.0,29.94,NNE,25,6.0,15.0,88,0.00,,,0.66,,2013-04-10 23:22:00,
2013-04-10 19:33:00,38.0,34.0,29.92,North,11,1.0,11.0,87,0.00,,,0.66,,2013-04-10 23:33:00,
2013-04-10 19:42:00,38.0,34.0,29.92,North,11,1.0,11.0,87,0.00,,,0.66,,2013-04-10 23:42:00,
2013-04-10 19:53:00,38.0,34.0,29.95,NE,55,2.0,11.0,85,0.00,,,0.66,,2013-04-10 23:53:00,
2013-04-10 20:02:00,38.0,34.0,29.96,NE,40,9.0,13.0,84,0.00,,,0.66,,2013-04-11 00:02:00,
2013-04-10 20:13:00,38.0,34.0,29.96,NE,40,9.0,13.0,84,0.00,,,0.66,,2013-04-11 00:13:00,
2013-04-10 20:23:00,38.0,33.0,29.95,NNE,28,3.0,13.0,83,0.00,,,0.66,,2013-04-11 00:23:00,
2013-04-10 20:32:00,38.0,33.0,29.94,NNE,20,3.0,11.0,83,0.00,,,0.66,,2013-04-11 00:32:00,
2013-04-10 20:42:00,38.0,33.0,29.93,NNE,33,3.0,10.0,82,0.00,,,0.66,,2013-04-11 00:42:00,
2013-04-10 20:53:00,38.0,33.0,29.93,NNE,33,3.0,10.0,82,0.00,,,0.66,,2013-04-11 00:53:00,
2013-04-10 21:02:00,38.0,33.0,29.96,ENE,65,0.0,10.0,82,0.00,,,0.66,,2013-04-11 01:02:00,
2013-04-10 21:12:00,38.0,33.0,29.96,North,355,3.0,13.0,82,0.00,,,0.66,,2013-04-11 01:12:00,
2013-04-10 21:22:00,38.0,33.0,29.96,North,355,3.0,13.0,82,0.00,,,0.66,,2013-04-11 01:22:00,
2013-04-10 21:32:00,38.0,33.0,29.95,NNE,29,2.0,11.0,81,0.00,,,0.66,,2013-04-11 01:32:00,
2013-04-10 21:42:00,38.0,33.0,29.95,NNE,29,2.0,11.0,81,0.00,,,0.66,,2013-04-11 01:42:00,
2013-04-10 21:52:00,38.0,33.0,29.95,NE,36,3.0,11.0,81,0.00,,,0.66,,2013-04-11 01:52:00,
2013-04-10 22:03:00,38.0,33.0,29.97,NE,46,0.0,6.0,82,0.00,,,0.66,,2013-04-11 02:03:00,
2013-04-10 22:12:00,38.0,33.0,29.98,NE,38,1.0,11.0,82,0.00,,,0.66,,2013-04-11 02:12:00,
2013-04-10 22:22:00,38.0,33.0,29.98,NE,38,1.0,11.0,82,0.00,,,0.66,,2013-04-11 02:22:00,
2013-04-10 22:32:00,38.0,34.0,29.97,NNE,28,4.0,9.0,85,0.01,,,0.66,,2013-04-11 02:32:00,
2013-04-10 22:42:00,38.0,34.0,29.97,NNE,28,4.0,9.0,85,0.01,,,0.66,,2013-04-11 02:42:00,
2013-04-10 22:52:00,37.0,33.0,29.96,NNE,28,1.0,7.0,86,0.01,,,0.66,,2013-04-11 02:52:00,
2013-04-10 23:02:00,37.0,33.0,29.96,NE,41,0.0,6.0,86,0.01,,,0.66,,2013-04-11 03:02:00,
2013-04-10 23:12:00,37.0,33.0,29.95,North,5,3.0,7.0,86,0.01,,,0.66,,2013-04-11 03:12:00,
2013-04-10 23:22:00,37.0,33.0,29.95,North,5,3.0,7.0,86,0.01,,,0.66,,2013-04-11 03:22:00,
2013-04-10 23:33:00,37.0,34.0,29.96,NE,41,2.0,7.0,87,0.00,,,0.66,,2013-04-11 03:33:00,
2013-04-10 23:43:00,37.0,33.0,29.97,NE,42,1.0,6.0,86,0.00,,,0.66,,2013-04-11 03:43:00,
2013-04-10 23:54:00,37.0,33.0,29.97,NE,42,1.0,6.0,86,0.00,,,0.66,,2013-04-11 03:54:00,